This demonstration page uses our WeatherBlox Daily Observations layout. Learn more.

Left ArrowRight Arrow

34.02893, -84.19858

Hourly Observations for August 16, 2022

Temp ( °F °C ) Dew Point ( °F °C ) Humidity (%) Winds ( mph kmh ) Pressure ( in mb ) Visibility ( mi km ) Precip ( " mm )
12:53 am 00:53 Clear 73 22.8 71 21.7 94 94 NW 7 11 29.85 1011 10 16 0.00 0.00
1:53 am 01:53 Clear 72 22.2 70 21.1 93 93 NW 5 7 29.85 1011 10 16 0.00 0.00
2:53 am 02:53 Clear 71 21.7 69 20.6 93 93 Calm 29.84 1011 10 16 0.00 0.00
3:53 am 03:53 Clear with Mist and Fog 69 20.6 68 20 96 96 Calm 29.83 1010 6 10 0.00 0.00
4:53 am 04:53 Clear 70 21.1 68 20 93 93 Calm 29.81 1010 9 14 0.00 0.00
5:53 am 05:53 Clear 68 20 67 19.4 96 96 Calm 29.83 1010 7 11 0.00 0.00
6:53 am 06:53 Clear with Mist and Fog 68 20 67 19.4 96 96 NNE 3 6 29.85 1011 6 10 0.00 0.00
7:53 am 07:53 Sunny 70 21.1 68 20 93 93 NNE 3 6 29.87 1012 7 11 0.00 0.00
8:53 am 08:53 Sunny 74 23.3 70 21.1 87 87 Calm 29.89 1012 9 14 0.00 0.00
9:19 am 09:19 Mostly Cloudy 74 23.3 69 20.6 85 85 VRB 5 7 29.90 1013 10 16 0.00 0.00
9:31 am 09:31 Mostly Cloudy 75 23.9 69 20.6 82 82 Calm 29.90 1013 10 16 0.00 0.00
9:53 am 09:53 Mostly Cloudy 74 23.3 68 20 82 82 Calm 29.89 1012 10 16 0.00 0.00
10:43 am 10:43 Mostly Cloudy 75 23.9 69 20.6 82 82 E 5 7 29.91 1013 10 16 0.00 0.00
10:53 am 10:53 Mostly Cloudy 76 24.4 69 20.6 79 79 N 3 6 29.91 1013 10 16 0.00 0.00
11:53 am 11:53 Mostly Cloudy 78 25.6 70 21.1 76 76 VRB 5 7 29.91 1013 10 16 0.00 0.00
12:33 pm 12:33 Mostly Cloudy 82 27.8 70 21.1 67 67 VRB 3 6 29.91 1013 10 16 0.00 0.00
12:40 pm 12:40 Mostly Cloudy 81 27.2 70 21.1 69 69 NNW 3 6 29.92 1013 10 16 0.00 0.00
12:48 pm 12:48 Partly Cloudy 82 28 70 21 66 66 Calm 29.91 1013 10 16 0.00 0.00
12:53 pm 12:53 Mostly Cloudy 83 28.3 70 21.1 65 65 NW 3 6 29.91 1013 10 16 0.00 0.00
1:53 pm 13:53 Mostly Cloudy 83 28.3 68 20 61 61 NNE 3 6 29.90 1013 10 16 0.00 0.00
2:53 pm 14:53 Partly Cloudy 84 28.9 66 18.9 55 55 Calm 29.89 1012 10 16 0.00 0.00
3:53 pm 15:53 Sunny 85 29.4 64 17.8 50 50 NW 12 19 29.88 1012 10 16 0.00 0.00
4:53 pm 16:53 Mostly Cloudy 83 28.3 63 17.2 51 51 NW 14 22 29.88 1012 10 16 0.00 0.00
5:53 pm 17:53 Sunny 81 27.2 64 17.8 57 57 NNW 8 13 29.87 1011 10 16 0.00 0.00
6:53 pm 18:53 Sunny 80 26.7 65 18.3 60 60 NW 8 13 29.87 1011 10 16 0.00 0.00
7:53 pm 19:53 Sunny 79 26.1 66 18.9 65 65 NNW 5 7 29.88 1012 10 16 0.00 0.00
8:53 pm 20:53 Cloudy 78 25.6 66 18.9 67 67 WNW 3 6 29.91 1013 10 16 0.00 0.00
9:53 pm 21:53 Mostly Cloudy 77 25 67 19.4 71 71 NW 7 11 29.91 1013 10 16 0.00 0.00
10:53 pm 22:53 Mostly Clear 75 23.9 66 18.9 74 74 NNW 6 9 29.91 1013 10 16 0.00 0.00
11:53 pm 23:53 Mostly Cloudy 73 22.8 67 19.4 81 81 N 6 9 29.93 1013 10 16 0.00 0.00

Powered by AerisWeather